Location: C�an Torras
(41.5052°N, 1.9280°E)
Time: 00:54:22
(UTC+00:00)

Lacrosse 5 - Pass Details

Date: 20 January 2021
Orbit: 715 x 724 km, 57.0° (Epoch: 07 March)

Event Time Altitude Azimuth Distance (km) Brightness Sun altitude
Rises 17:34:22 0° 318° (NW) 3,122 5.5 -7.9°
Reaches altitude 10° 17:37:05 10° 331° (NNW) 2,200 4.5 -8.4°
Maximum altitude 17:41:22 27° 29° (NNE) 1,363 2.9 -9.1°
Enters shadow 17:45:12 12° 83° (E) 2,057 3.6 -9.8°
